Natchez, MS

2:39 AM CST on November 18, 2019 (GMT -0600)
Hardy-Anders-Adams County

Weather History for KHEZ - September, 2019

Change the Weather History Date:

Saturday, September 21, 2019

  Actual Average Record
Temperature  
Mean Temperature 80 °F -  
Max Temperature 91 °F 86 °F 97 °F (1944)
Min Temperature 69 °F 65 °F 45 °F (1938)
Cooling Degree Days 15    
Growing Degree Days 30 (Base 50)    
Moisture  
Dew Point 69 °F    
Average Humidity 72    
Maximum Humidity 90    
Minimum Humidity 47    
Precipitation  
Precipitation 0.00 in - - ()
Sea Level Pressure  
Sea Level Pressure 30.13 in    
Wind  
Wind Speed 7 mph (SE)    
Max Wind Speed 17 mph    
Max Gust Speed 24 mph    
Visibility 10 miles    
Events      
Averages and records for this station are not official NWS values.
T = Trace of Precipitation, MM = Missing Value Source: NWS Daily Summary

Daily Weather History Graph

Daily Weather History Graph

Search for Another Location

Airport or City:

Astronomy

Sep. 21, 2019 Rise Set
Actual Time 6:52 AM CDT 7:03 PM CDT
Civil Twilight 6:28 AM CDT 7:27 PM CDT
Nautical Twilight 6:00 AM CDT 7:55 PM CDT
Astronomical Twilight 5:31 AM CDT 8:24 PM CDT
Moon No Moon Rise 1:35 PM CDT (9/21)
Length of Visible Light 12h 59m
Length of Day
12h 10m
Waning Gibbous, 54% of the Moon is Illuminated
Sep 21
Waning Gibbous
Sep 21
Last Quarter
Sep 28
New
Oct 5
First Quarter
Oct 13
Full

Hourly Weather History & Observations

Time (CDT) Temp. Heat Index Dew Point Humidity Pressure Visibility Wind Dir Wind Speed Gust Speed Precip Events Conditions
12:56 AM 73.0 °F - 68.0 °F 84% 30.14 in 10.0 mi SE 8.1 mph - N/A   Clear
1:56 AM 72.0 °F - 68.0 °F 87% 30.14 in 10.0 mi SE 6.9 mph - N/A   Clear
2:56 AM 71.1 °F - 66.9 °F 87% 30.14 in 10.0 mi SE 4.6 mph - N/A   Clear
3:56 AM 70.0 °F - 66.9 °F 90% 30.13 in 10.0 mi ESE 4.6 mph - N/A   Clear
4:56 AM 71.1 °F - 66.9 °F 87% 30.14 in 10.0 mi ESE 4.6 mph - N/A   Clear
5:56 AM 70.0 °F - 66.9 °F 90% 30.15 in 10.0 mi ESE 4.6 mph - N/A   Clear
6:56 AM 69.1 °F - 66.0 °F 90% 30.15 in 10.0 mi ESE 4.6 mph - N/A   Clear
7:56 AM 73.0 °F - 68.0 °F 84% 30.17 in 10.0 mi East 4.6 mph - N/A   Clear
8:56 AM 78.1 °F - 69.1 °F 74% 30.19 in 10.0 mi East 6.9 mph - N/A   Clear
9:56 AM 82.0 °F 85.9 °F 70.0 °F 67% 30.19 in 10.0 mi ESE 8.1 mph - N/A   Clear
10:56 AM 84.9 °F 88.8 °F 69.1 °F 59% 30.19 in 10.0 mi SE 9.2 mph - N/A   Clear
11:56 AM 84.9 °F 88.8 °F 69.1 °F 59% 30.17 in 10.0 mi SE 8.1 mph - N/A   Scattered Clouds
12:56 PM 88.0 °F 92.1 °F 69.1 °F 53% 30.16 in 10.0 mi South 10.4 mph - N/A   Scattered Clouds
1:54 PM 87.8 °F 92.6 °F 69.8 °F 55% 30.14 in 10.0 mi East 4.6 mph - N/A   Scattered Clouds
1:56 PM 87.1 °F 90.6 °F 68.0 °F 53% 30.13 in 10.0 mi Variable 3.5 mph - N/A   Scattered Clouds
2:56 PM 87.1 °F 89.9 °F 66.9 °F 51% 30.10 in 10.0 mi SSE 8.1 mph - N/A   Mostly Cloudy
3:56 PM 91.0 °F 95.2 °F 68.0 °F 47% 30.09 in 10.0 mi WSW 5.8 mph - N/A   Partly Cloudy
4:56 PM 89.1 °F 92.1 °F 66.9 °F 48% 30.07 in 10.0 mi South 5.8 mph - N/A   Clear
5:56 PM 82.0 °F 85.9 °F 70.0 °F 67% 30.09 in 10.0 mi SSE 17.3 mph 24.2 mph N/A   Mostly Cloudy
6:06 PM 82.4 °F 86.3 °F 69.8 °F 66% 30.10 in 10.0 mi SSE 16.1 mph 24.2 mph N/A   Mostly Cloudy
6:56 PM 81.0 °F 84.4 °F 70.0 °F 69% 30.09 in 10.0 mi SSE 9.2 mph - N/A   Overcast
7:56 PM 78.1 °F - 71.1 °F 79% 30.10 in 10.0 mi SSE 9.2 mph - N/A   Overcast
8:56 PM 77.0 °F - 70.0 °F 79% 30.12 in 10.0 mi SSE 10.4 mph - N/A   Overcast
9:56 PM 75.9 °F - 70.0 °F 82% 30.13 in 10.0 mi SSE 8.1 mph - N/A   Partly Cloudy
10:56 PM 75.0 °F - 71.1 °F 87% 30.13 in 10.0 mi SSE 11.5 mph - N/A   Overcast
11:56 PM 75.0 °F - 71.1 °F 87% 30.12 in 10.0 mi SSE 9.2 mph - N/A   Scattered Clouds